Seattle, WA
on Sunday, February 24, 2013

Sunday
Previous Day Next Day
Daily Summary
 ActualAverageRecord
Temperature
Mean Temperature °F / °C 44°F / 7°C  
Max Temperature 48°F / 9°C 51°F / 11°C 62°F / 16°C (1949)
Min Temperature 41°F / 5°C 37°F / 3°C 24°F / -4°C (2011)
Degree Days
Heating Degree Days 20 21  
Month to date heating degree days 490 522  
Since 1 July heating degree days 3064 3171  
Cooling Degree Days 0 0  
Month to date cooling degree days 0 0  
Year to date cooling degree days 0 0  
Moisture
Dew Point 34°F / 1°C   
Average Humidity 68    
Maximum Humidity 79    
Minimum Humidity 56    
Precipitation
Precipitation T in / T cm 0.12 in / 3.05 cm 1.55 in / 3.94 cm (1961)
Month to date precipitation 0.97 3.00  
Year to date precipitation 5.13 8.57  
Snow
Snow 0.00 in / 0.00 cm in / cm 0.70 in / 1.78 cm (1994)
Month to date snowfall 0.0  
Since 1 July snowfall 0.6  
Snow Depth 0.00 in / 0.00 cm   
Wind
Wind Speed 12 mph / 20 km/h   
Max Wind Speed 26 mph / 42 km/h   
Max Gust Speed 35 mph / 56 km/h   
Visibility 10 miles / 16 kilometers   
Events Rain   

Key: T is trace of precipitation, MM is missing value
Source: NWS Daily Summary
Time(PST)TemperatureDew PointHumidity Pressure Visibility Wind DirectionWind SpeedGust SpeedPrecipitationEvents Conditions
12:53 AM 41.0°F / 5.0°C 34.0°F / 1.1°C 76% 30.40 in / 1029.4 hPa 10.0 miles / 16.1 kilometers South 10.4 mph / 16.7 km/h - N/A   Overcast
1:53 AM 41.0°F / 5.0°C 35.1°F / 1.7°C 79% 30.40 in / 1029.2 hPa 10.0 miles / 16.1 kilometers South 9.2 mph / 14.8 km/h - N/A   Overcast
2:18 AM 41.0°F / 5.0°C 35.6°F / 2.0°C 81% 30.37 in / 1028.3 hPa 10.0 miles / 16.1 kilometers South 9.2 mph / 14.8 km/h - N/A   Mostly Cloudy
2:53 AM 41.0°F / 5.0°C 35.1°F / 1.7°C 79% 30.40 in / 1029.3 hPa 10.0 miles / 16.1 kilometers South 9.2 mph / 14.8 km/h - N/A   Overcast
3:53 AM 41.0°F / 5.0°C 35.1°F / 1.7°C 79% 30.40 in / 1029.2 hPa 10.0 miles / 16.1 kilometers South 12.7 mph / 20.4 km/h - N/A   Overcast
4:53 AM 42.1°F / 5.6°C 34.0°F / 1.1°C 73% 30.39 in / 1029.1 hPa 10.0 miles / 16.1 kilometers South 11.5 mph / 18.5 km/h - N/A   Overcast
5:53 AM 42.1°F / 5.6°C 33.1°F / 0.6°C 70% 30.38 in / 1028.7 hPa 10.0 miles / 16.1 kilometers South 13.8 mph / 22.2 km/h - N/A   Overcast
6:53 AM 42.1°F / 5.6°C 33.1°F / 0.6°C 70% 30.37 in / 1028.2 hPa 10.0 miles / 16.1 kilometers South 12.7 mph / 20.4 km/h - N/A   Overcast
7:53 AM 43.0°F / 6.1°C 33.1°F / 0.6°C 68% 30.38 in / 1028.5 hPa 10.0 miles / 16.1 kilometers SSW 12.7 mph / 20.4 km/h - N/A   Overcast
8:53 AM 44.1°F / 6.7°C 33.1°F / 0.6°C 65% 30.37 in / 1028.2 hPa 10.0 miles / 16.1 kilometers South 10.4 mph / 16.7 km/h - N/A   Mostly Cloudy
9:53 AM 46.0°F / 7.8°C 34.0°F / 1.1°C 63% 30.36 in / 1027.9 hPa 10.0 miles / 16.1 kilometers South 13.8 mph / 22.2 km/h - N/A   Mostly Cloudy
10:53 AM 46.9°F / 8.3°C 34.0°F / 1.1°C 61% 30.35 in / 1027.7 hPa 10.0 miles / 16.1 kilometers SSW 12.7 mph / 20.4 km/h 19.6 mph / 31.5 km/h N/A   Overcast
11:53 AM 46.9°F / 8.3°C 35.1°F / 1.7°C 63% 30.33 in / 1027.1 hPa 10.0 miles / 16.1 kilometers SSW 15.0 mph / 24.1 km/h 21.9 mph / 35.2 km/h N/A   Overcast
12:53 PM 46.9°F / 8.3°C 34.0°F / 1.1°C 61% 30.31 in / 1026.2 hPa 10.0 miles / 16.1 kilometers South 11.5 mph / 18.5 km/h - N/A   Overcast
1:53 PM 46.9°F / 8.3°C 34.0°F / 1.1°C 61% 30.29 in / 1025.5 hPa 10.0 miles / 16.1 kilometers SSW 15.0 mph / 24.1 km/h - 0.00 in / 0.0 cm   Overcast
2:53 PM 48.0°F / 8.9°C 34.0°F / 1.1°C 58% 30.26 in / 1024.6 hPa 10.0 miles / 16.1 kilometers SSW 13.8 mph / 22.2 km/h - N/A   Overcast
3:53 PM 48.0°F / 8.9°C 34.0°F / 1.1°C 58% 30.23 in / 1023.6 hPa 10.0 miles / 16.1 kilometers SSW 10.4 mph / 16.7 km/h - N/A   Overcast
4:53 PM 46.9°F / 8.3°C 36.0°F / 2.2°C 66% 30.20 in / 1022.6 hPa 10.0 miles / 16.1 kilometers SSW 15.0 mph / 24.1 km/h 19.6 mph / 31.5 km/h N/A   Overcast
5:53 PM 46.9°F / 8.3°C 34.0°F / 1.1°C 61% 30.17 in / 1021.6 hPa 10.0 miles / 16.1 kilometers South 13.8 mph / 22.2 km/h - N/A   Overcast
6:53 PM 46.9°F / 8.3°C 33.1°F / 0.6°C 59% 30.14 in / 1020.7 hPa 10.0 miles / 16.1 kilometers South 9.2 mph / 14.8 km/h - N/A   Overcast
7:53 PM 46.9°F / 8.3°C 32.0°F / 0.0°C 56% 30.11 in / 1019.6 hPa 10.0 miles / 16.1 kilometers South 8.1 mph / 13.0 km/h - N/A   Overcast
8:53 PM 46.9°F / 8.3°C 32.0°F / 0.0°C 56% 30.08 in / 1018.6 hPa 10.0 miles / 16.1 kilometers South 11.5 mph / 18.5 km/h - N/A   Overcast
9:53 PM 46.9°F / 8.3°C 32.0°F / 0.0°C 56% 30.05 in / 1017.5 hPa 10.0 miles / 16.1 kilometers South 10.4 mph / 16.7 km/h - 0.00 in / 0.0 cm   Light Drizzle
10:53 PM 46.9°F / 8.3°C 30.9°F / -0.6°C 54% 30.01 in / 1016.0 hPa 10.0 miles / 16.1 kilometers SSE 13.8 mph / 22.2 km/h - 0.00 in / 0.0 cm   Overcast
11:53 PM 45.0°F / 7.2°C 35.1°F / 1.7°C 68% 29.98 in / 1015.0 hPa 9.0 miles / 14.5 kilometers South 18.4 mph / 29.6 km/h 34.5 mph / 55.6 km/h 0.00 in / 0.0 cm Rain Light Rain
Moon Phase
Feb. 24 Feb. 25 Mar. 04 Mar. 11 Mar. 19
Sunrise:06:58 AM (PST) Moon Rise:05:04 PM (PST)2/24
Sunset:05:47 PM (PST) Moon Set:05:59 AM (PST)2/24

Copyright © 2014 The Weather Underground, Inc.